Location: Arbon
(43.0005°N, 0.7472°E)
Time: 04:32:53
(UTC+00:00)

Vanguard 2 Rocket - Pass Details

Date: 28 June 2021
Orbit: 554 x 3325 km, 32.9° (Epoch: 26 July)

Event Time Altitude Azimuth Distance (km) Brightness Sun altitude
Rises 21:53:58 0° 278° (W) 7,317 12.1 -17.7°
Reaches altitude 10° 21:59:29 10° 272° (W) 6,244 11.5 -18.2°
Maximum altitude 22:16:18 39° 213° (SSW) 3,633 9.6 -19.6°
Enters shadow 22:23:34 25° 168° (SSE) 3,772 9.4 -20.1°
